PIMOHWEATHER Station Historical Data
Daily Summary for May 07, 2020 Units:  Metric    English   Both
Daily Weekly Monthly Yearly
  High: Low: Average:
Temperature: 37.0 °C 29.0 °C 31.8 °C
Dew Point: 29.0 °C 26.0 °C 27.6 °C
Humidity: 89% 58% 79%
Wind Speed: 21km/h 0km/h 8.2km/h
Wind Gust: 24km/h - -
Wind- - South
Pressure: 1009.8 hPa 1004.7 hPa -
Precipitation: 0.00 mm    
 
 
Tabular Data for May 07, 2020
Time Temperature Dew Point Pressure Wind Wind Speed Wind Gust Humidity Rainfall Rate (Hourly) solar
00:04 29.0 °C 27.0 °C 1009.0 hPa SE 8 km/h 12 km/h 89% 0.00 mm 0.00 W/m2
00:09 29.0 °C 27.0 °C 1008.9 hPa ESE 3 km/h 4 km/h 89% 0.00 mm 0.00 W/m2
00:14 29.0 °C 27.0 °C 1008.8 hPa SE 5 km/h 8 km/h 89% 0.00 mm 0.00 W/m2
00:19 29.0 °C 27.0 °C 1008.6 hPa SE 5 km/h 8 km/h 88% 0.00 mm 0.00 W/m2
00:24 29.0 °C 27.0 °C 1008.5 hPa SE 8 km/h 8 km/h 88% 0.00 mm 0.00 W/m2
00:29 29.0 °C 27.0 °C 1008.4 hPa SE 7 km/h 8 km/h 88% 0.00 mm 0.00 W/m2
00:34 29.0 °C 27.0 °C 1008.5 hPa SE 9 km/h 12 km/h 88% 0.00 mm 0.00 W/m2
00:39 29.0 °C 27.0 °C 1008.8 hPa SE 10 km/h 12 km/h 87% 0.00 mm 0.00 W/m2
00:44 29.0 °C 27.0 °C 1008.8 hPa ESE 4 km/h 4 km/h 88% 0.00 mm 0.00 W/m2
00:49 29.0 °C 27.0 °C 1008.6 hPa ESE 5 km/h 8 km/h 87% 0.00 mm 0.00 W/m2
00:54 29.0 °C 27.0 °C 1008.5 hPa ESE 2 km/h 4 km/h 87% 0.00 mm 0.00 W/m2
00:59 29.0 °C 27.0 °C 1008.4 hPa Calm   4 km/h 86% 0.00 mm 0.00 W/m2
01:04 29.0 °C 27.0 °C 1008.2 hPa SE 5 km/h 8 km/h 86% 0.00 mm 0.00 W/m2
01:09 29.0 °C 26.0 °C 1008.4 hPa SE 6 km/h 8 km/h 85% 0.00 mm 0.00 W/m2
01:14 29.0 °C 26.0 °C 1008.4 hPa ESE 4 km/h 8 km/h 85% 0.00 mm 0.00 W/m2
01:19 29.0 °C 26.0 °C 1008.4 hPa SE 5 km/h 8 km/h 85% 0.00 mm 0.00 W/m2
01:24 29.0 °C 26.0 °C 1008.3 hPa ESE 4 km/h 4 km/h 85% 0.00 mm 0.00 W/m2
01:29 29.0 °C 26.0 °C 1008.4 hPa SE 6 km/h 8 km/h 85% 0.00 mm 0.00 W/m2
01:34 29.0 °C 26.0 °C 1008.4 hPa SE 5 km/h 8 km/h 85% 0.00 mm 0.00 W/m2
01:39 29.0 °C 26.0 °C 1008.4 hPa Calm     85% 0.00 mm 0.00 W/m2
01:44 29.0 °C 26.0 °C 1008.1 hPa Calm     85% 0.00 mm 0.00 W/m2
01:49 29.0 °C 26.0 °C 1007.9 hPa Calm   4 km/h 85% 0.00 mm 0.00 W/m2
01:54 29.0 °C 26.0 °C 1007.9 hPa Calm     85% 0.00 mm 0.00 W/m2
01:59 29.0 °C 26.0 °C 1007.8 hPa ESE 2 km/h 4 km/h 85% 0.00 mm 0.00 W/m2
02:04 29.0 °C 27.0 °C 1007.8 hPa SE 1 km/h 4 km/h 86% 0.00 mm 0.00 W/m2
02:09 29.0 °C 27.0 °C 1007.9 hPa SSE 2 km/h 4 km/h 86% 0.00 mm 0.00 W/m2
02:14 29.0 °C 27.0 °C 1007.9 hPa ESE 2 km/h 4 km/h 86% 0.00 mm 0.00 W/m2
02:19 29.0 °C 27.0 °C 1008.0 hPa Calm   4 km/h 86% 0.00 mm 0.00 W/m2
02:24 29.0 °C 27.0 °C 1008.0 hPa SSE 2 km/h 4 km/h 86% 0.00 mm 0.00 W/m2
02:29 29.0 °C 27.0 °C 1007.9 hPa SSE 4 km/h 4 km/h 87% 0.00 mm 0.00 W/m2
02:34 29.0 °C 27.0 °C 1007.8 hPa SSE 5 km/h 8 km/h 87% 0.00 mm 0.00 W/m2
02:39 29.0 °C 27.0 °C 1007.8 hPa SE 6 km/h 8 km/h 87% 0.00 mm 0.00 W/m2
02:44 29.0 °C 27.0 °C 1007.7 hPa SSE 6 km/h 8 km/h 88% 0.00 mm 0.00 W/m2
02:49 29.0 °C 27.0 °C 1007.6 hPa SE 3 km/h 4 km/h 87% 0.00 mm 0.00 W/m2
02:54 29.0 °C 27.0 °C 1007.6 hPa SSE 5 km/h 8 km/h 87% 0.00 mm 0.00 W/m2
02:59 29.0 °C 27.0 °C 1007.8 hPa SE 6 km/h 8 km/h 87% 0.00 mm 0.00 W/m2
03:04 29.0 °C 27.0 °C 1007.7 hPa SSE 6 km/h 8 km/h 87% 0.00 mm 0.00 W/m2
03:09 29.0 °C 27.0 °C 1007.6 hPa SE 3 km/h 4 km/h 87% 0.00 mm 0.00 W/m2
03:14 29.0 °C 27.0 °C 1007.8 hPa SSE 2 km/h 4 km/h 87% 0.00 mm 0.00 W/m2
03:19 29.0 °C 27.0 °C 1007.8 hPa East 3 km/h 4 km/h 87% 0.00 mm 0.00 W/m2
03:24 29.0 °C 27.0 °C 1007.9 hPa Calm     88% 0.00 mm 0.00 W/m2
03:29 29.0 °C 27.0 °C 1007.9 hPa NNE 2 km/h 4 km/h 88% 0.00 mm 0.00 W/m2
03:34 29.0 °C 27.0 °C 1007.9 hPa ENE 1 km/h 4 km/h 88% 0.00 mm 0.00 W/m2
03:39 29.0 °C 27.0 °C 1007.9 hPa Calm   4 km/h 87% 0.00 mm 0.00 W/m2
03:44 29.0 °C 27.0 °C 1007.7 hPa East 3 km/h 4 km/h 87% 0.00 mm 0.00 W/m2
03:49 29.0 °C 27.0 °C 1007.9 hPa Calm   4 km/h 87% 0.00 mm 0.00 W/m2
03:54 29.0 °C 27.0 °C 1007.9 hPa Calm   4 km/h 86% 0.00 mm 0.00 W/m2
03:59 29.0 °C 27.0 °C 1007.8 hPa Calm     87% 0.00 mm 0.00 W/m2
04:04 29.0 °C 27.0 °C 1007.8 hPa Calm     87% 0.00 mm 0.00 W/m2
04:09 29.0 °C 27.0 °C 1007.9 hPa Calm     87% 0.00 mm 0.00 W/m2
04:14 29.0 °C 27.0 °C 1008.0 hPa Calm     87% 0.00 mm 0.00 W/m2
04:19 29.0 °C 27.0 °C 1008.0 hPa Calm     87% 0.00 mm 0.00 W/m2
04:24 29.0 °C 27.0 °C 1008.3 hPa NE 3 km/h 4 km/h 87% 0.00 mm 0.00 W/m2
04:29 29.0 °C 27.0 °C 1008.3 hPa Calm     87% 0.00 mm 0.00 W/m2
04:34 29.0 °C 27.0 °C 1008.3 hPa Calm     87% 0.00 mm 0.00 W/m2
04:39 29.0 °C 27.0 °C 1008.4 hPa NE 2 km/h 4 km/h 87% 0.00 mm 0.00 W/m2
04:44 29.0 °C 27.0 °C 1008.2 hPa NNE 3 km/h 4 km/h 87% 0.00 mm 0.00 W/m2
04:49 29.0 °C 27.0 °C 1008.5 hPa Calm     87% 0.00 mm 0.00 W/m2
04:54 29.0 °C 27.0 °C 1008.3 hPa Calm     87% 0.00 mm 0.00 W/m2
04:59 29.0 °C 27.0 °C 1008.2 hPa Calm     87% 0.00 mm 0.00 W/m2
05:04 29.0 °C 27.0 °C 1008.3 hPa Calm     87% 0.00 mm 0.00 W/m2
05:09 29.0 °C 27.0 °C 1008.3 hPa Calm     87% 0.00 mm 0.00 W/m2
05:14 29.0 °C 27.0 °C 1008.3 hPa Calm     88% 0.00 mm 0.00 W/m2
05:19 29.0 °C 27.0 °C 1008.3 hPa Calm     88% 0.00 mm 0.00 W/m2
05:24 29.0 °C 27.0 °C 1008.3 hPa Calm     88% 0.00 mm 0.00 W/m2
05:29 29.0 °C 27.0 °C 1008.5 hPa North 1 km/h 4 km/h 88% 0.00 mm 0.00 W/m2
05:34 29.0 °C 27.0 °C 1008.4 hPa NW 3 km/h 4 km/h 88% 0.00 mm 2.63 W/m2
05:39 29.0 °C 27.0 °C 1008.5 hPa Calm     88% 0.00 mm 6.47 W/m2
05:44 29.0 °C 27.0 °C 1008.4 hPa Calm     88% 0.00 mm 12.16 W/m2
05:49 29.0 °C 27.0 °C 1008.9 hPa Calm     88% 0.00 mm 18.94 W/m2
05:54 29.0 °C 27.0 °C 1008.7 hPa SW 4 km/h 4 km/h 89% 0.00 mm 25.36 W/m2
05:59 29.0 °C 27.0 °C 1008.7 hPa SE 3 km/h 4 km/h 89% 0.00 mm 30.09 W/m2
06:04 29.0 °C 27.0 °C 1008.7 hPa SSE 3 km/h 4 km/h 89% 0.00 mm 33.86 W/m2
06:09 29.0 °C 27.0 °C 1008.7 hPa SE 5 km/h 8 km/h 89% 0.00 mm 41.45 W/m2
06:14 29.0 °C 27.0 °C 1008.7 hPa SE 3 km/h 4 km/h 89% 0.00 mm 47.38 W/m2
06:19 29.0 °C 27.0 °C 1008.7 hPa SE 5 km/h 8 km/h 89% 0.00 mm 60.17 W/m2
06:24 29.0 °C 27.0 °C 1008.7 hPa SE 5 km/h 8 km/h 89% 0.00 mm 83.40 W/m2
06:29 29.0 °C 27.0 °C 1008.8 hPa Calm     89% 0.00 mm 87.71 W/m2
06:34 30.0 °C 27.0 °C 1008.8 hPa Calm   4 km/h 88% 0.00 mm 106.94 W/m2
06:39 30.0 °C 28.0 °C 1008.8 hPa South 2 km/h 4 km/h 87% 0.00 mm 121.60 W/m2
06:44 30.0 °C 28.0 °C 1008.9 hPa SSE 5 km/h 8 km/h 86% 0.00 mm 126.27 W/m2
06:49 30.0 °C 28.0 °C 1009.1 hPa SSW 4 km/h 8 km/h 86% 0.00 mm 145.82 W/m2
06:54 30.0 °C 28.0 °C 1009.1 hPa South 5 km/h 8 km/h 85% 0.00 mm 146.11 W/m2
06:59 30.0 °C 28.0 °C 1009.0 hPa SSE 5 km/h 8 km/h 85% 0.00 mm 100.75 W/m2
07:04 30.0 °C 28.0 °C 1009.1 hPa SW 3 km/h 4 km/h 86% 0.00 mm 103.00 W/m2
07:09 30.0 °C 28.0 °C 1009.1 hPa NW 4 km/h 4 km/h 86% 0.00 mm 129.92 W/m2
07:14 30.0 °C 28.0 °C 1009.2 hPa NW 3 km/h 4 km/h 86% 0.00 mm 135.64 W/m2
07:19 30.0 °C 28.0 °C 1009.2 hPa WSW 5 km/h 8 km/h 86% 0.00 mm 113.13 W/m2
07:24 30.0 °C 28.0 °C 1009.4 hPa NW 5 km/h 8 km/h 86% 0.00 mm 189.74 W/m2
07:29 30.0 °C 28.0 °C 1009.3 hPa NW 4 km/h 4 km/h 86% 0.00 mm 201.02 W/m2
07:34 30.0 °C 28.0 °C 1009.4 hPa NW 6 km/h 8 km/h 86% 0.00 mm 132.04 W/m2
07:39 31.0 °C 28.0 °C 1009.3 hPa Calm   4 km/h 85% 0.00 mm 130.43 W/m2
07:44 31.0 °C 28.0 °C 1009.3 hPa Calm     85% 0.00 mm 116.83 W/m2
07:49 31.0 °C 28.0 °C 1009.4 hPa WNW 5 km/h 8 km/h 85% 0.00 mm 107.94 W/m2
07:54 31.0 °C 28.0 °C 1009.4 hPa Calm   4 km/h 85% 0.00 mm 122.48 W/m2
07:59 31.0 °C 28.0 °C 1009.3 hPa Calm   4 km/h 85% 0.00 mm 141.61 W/m2
08:04 31.0 °C 28.0 °C 1009.4 hPa SSW 4 km/h 4 km/h 85% 0.00 mm 135.40 W/m2
08:09 31.0 °C 28.0 °C 1009.4 hPa South 5 km/h 8 km/h 85% 0.00 mm 123.19 W/m2
08:14 31.0 °C 28.0 °C 1009.4 hPa South 5 km/h 8 km/h 85% 0.00 mm 116.26 W/m2
08:19 31.0 °C 28.0 °C 1009.6 hPa NW 1 km/h 4 km/h 85% 0.00 mm 121.28 W/m2
08:24 31.0 °C 28.0 °C 1009.6 hPa South 6 km/h 8 km/h 85% 0.00 mm 133.29 W/m2
08:29 31.0 °C 28.0 °C 1009.7 hPa South 5 km/h 8 km/h 85% 0.00 mm 134.00 W/m2
08:34 31.0 °C 28.0 °C 1009.8 hPa SSE 6 km/h 8 km/h 84% 0.00 mm 126.27 W/m2
08:39 31.0 °C 28.0 °C 1009.8 hPa South 5 km/h 8 km/h 84% 0.00 mm 193.21 W/m2
08:44 31.0 °C 28.0 °C 1009.5 hPa South 5 km/h 8 km/h 84% 0.00 mm 290.81 W/m2
08:49 31.0 °C 28.0 °C 1009.5 hPa South 7 km/h 8 km/h 83% 0.00 mm 334.49 W/m2
08:54 32.0 °C 28.0 °C 1009.5 hPa South 4 km/h 4 km/h 82% 0.00 mm 387.16 W/m2
08:59 32.0 °C 28.0 °C 1009.4 hPa SW 7 km/h 12 km/h 79% 0.00 mm 389.20 W/m2
09:04 33.0 °C 28.0 °C 1009.7 hPa WNW 5 km/h 8 km/h 79% 0.00 mm 397.83 W/m2
09:09 33.0 °C 29.0 °C 1009.5 hPa West 6 km/h 8 km/h 78% 0.00 mm 441.48 W/m2
09:14 33.0 °C 28.0 °C 1009.5 hPa NW 10 km/h 12 km/h 77% 0.00 mm 452.81 W/m2
09:19 33.0 °C 29.0 °C 1009.7 hPa NW 10 km/h 12 km/h 77% 0.00 mm 456.82 W/m2
09:24 33.0 °C 28.0 °C 1009.5 hPa NW 13 km/h 16 km/h 79% 0.00 mm 333.63 W/m2
09:29 33.0 °C 28.0 °C 1009.4 hPa SW 6 km/h 8 km/h 80% 0.00 mm 429.47 W/m2
09:34 33.0 °C 29.0 °C 1009.5 hPa South 10 km/h 16 km/h 78% 0.00 mm 435.71 W/m2
09:39 33.0 °C 28.0 °C 1009.4 hPa NW 12 km/h 16 km/h 77% 0.00 mm 461.99 W/m2
09:44 34.0 °C 29.0 °C 1009.4 hPa WNW 8 km/h 12 km/h 76% 0.00 mm 489.49 W/m2
09:49 34.0 °C 29.0 °C 1009.4 hPa West 14 km/h 16 km/h 76% 0.00 mm 482.98 W/m2
09:54 34.0 °C 29.0 °C 1009.3 hPa WSW 10 km/h 12 km/h 75% 0.00 mm 471.45 W/m2
09:59 34.0 °C 29.0 °C 1009.4 hPa WNW 10 km/h 16 km/h 75% 0.00 mm 469.57 W/m2
10:04 34.0 °C 29.0 °C 1009.3 hPa South 10 km/h 12 km/h 75% 0.00 mm 482.00 W/m2
10:09 34.0 °C 29.0 °C 1009.2 hPa WNW 11 km/h 12 km/h 75% 0.00 mm 485.50 W/m2
10:14 34.0 °C 28.0 °C 1009.2 hPa WSW 8 km/h 12 km/h 74% 0.00 mm 484.15 W/m2
10:19 34.0 °C 29.0 °C 1009.1 hPa SW 12 km/h 16 km/h 73% 0.00 mm 485.47 W/m2
10:24 34.0 °C 29.0 °C 1009.0 hPa SW 9 km/h 12 km/h 73% 0.00 mm 477.08 W/m2
10:29 34.0 °C 29.0 °C 1009.0 hPa SW 11 km/h 16 km/h 72% 0.00 mm 494.43 W/m2
10:34 34.0 °C 29.0 °C 1009.0 hPa WNW 15 km/h 20 km/h 73% 0.00 mm 486.50 W/m2
10:39 34.0 °C 28.0 °C 1009.0 hPa WNW 19 km/h 20 km/h 74% 0.00 mm 493.55 W/m2
10:44 34.0 °C 29.0 °C 1008.9 hPa SSW 10 km/h 16 km/h 73% 0.00 mm 487.85 W/m2
10:49 34.0 °C 28.0 °C 1008.9 hPa SW 18 km/h 20 km/h 72% 0.00 mm 492.35 W/m2
10:54 34.0 °C 28.0 °C 1008.9 hPa West 9 km/h 12 km/h 73% 0.00 mm 485.96 W/m2
10:59 35.0 °C 29.0 °C 1008.9 hPa SSW 15 km/h 16 km/h 73% 0.00 mm 485.30 W/m2
11:04 35.0 °C 28.0 °C 1008.7 hPa SSW 12 km/h 16 km/h 73% 0.00 mm 487.38 W/m2
11:09 35.0 °C 29.0 °C 1008.7 hPa SW 9 km/h 12 km/h 73% 0.00 mm 495.46 W/m2
11:14 35.0 °C 29.0 °C 1008.7 hPa South 10 km/h 12 km/h 72% 0.00 mm 506.64 W/m2
11:19 35.0 °C 28.0 °C 1008.4 hPa South 10 km/h 12 km/h 69% 0.00 mm 506.69 W/m2
11:24 35.0 °C 28.0 °C 1008.4 hPa WSW 10 km/h 12 km/h 70% 0.00 mm 503.04 W/m2
11:29 35.0 °C 28.0 °C 1008.3 hPa WSW 13 km/h 16 km/h 70% 0.00 mm 499.98 W/m2
11:34 35.0 °C 28.0 °C 1008.2 hPa SW 14 km/h 16 km/h 70% 0.00 mm 503.51 W/m2
11:39 35.0 °C 28.0 °C 1008.2 hPa WNW 15 km/h 16 km/h 68% 0.00 mm 501.77 W/m2
11:44 35.0 °C 28.0 °C 1008.2 hPa West 11 km/h 16 km/h 68% 0.00 mm 506.79 W/m2
11:49 35.0 °C 28.0 °C 1008.2 hPa SW 13 km/h 16 km/h 67% 0.00 mm 506.22 W/m2
11:54 36.0 °C 28.0 °C 1008.0 hPa West 13 km/h 16 km/h 68% 0.00 mm 505.02 W/m2
11:59 35.0 °C 28.0 °C 1008.0 hPa NW 12 km/h 16 km/h 67% 0.00 mm 509.04 W/m2
12:04 35.0 °C 28.0 °C 1008.0 hPa South 14 km/h 16 km/h 67% 0.00 mm 506.12 W/m2
12:09 35.0 °C 28.0 °C 1007.9 hPa SSW 10 km/h 12 km/h 66% 0.00 mm 510.28 W/m2
12:14 35.0 °C 28.0 °C 1007.8 hPa WSW 13 km/h 16 km/h 66% 0.00 mm 509.70 W/m2
12:19 35.0 °C 28.0 °C 1007.7 hPa South 15 km/h 16 km/h 67% 0.00 mm 510.26 W/m2
12:24 35.0 °C 28.0 °C 1007.7 hPa SSW 13 km/h 16 km/h 67% 0.00 mm 508.84 W/m2
12:29 36.0 °C 28.0 °C 1007.6 hPa WSW 10 km/h 16 km/h 66% 0.00 mm 511.73 W/m2
12:34 35.0 °C 28.0 °C 1007.6 hPa South 11 km/h 16 km/h 66% 0.00 mm 516.87 W/m2
12:39 35.0 °C 28.0 °C 1007.4 hPa South 13 km/h 16 km/h 65% 0.00 mm 516.08 W/m2
12:44 35.0 °C 28.0 °C 1007.2 hPa South 14 km/h 16 km/h 66% 0.00 mm 508.99 W/m2
12:49 35.0 °C 28.0 °C 1007.1 hPa South 14 km/h 16 km/h 65% 0.00 mm 512.66 W/m2
12:54 35.0 °C 27.0 °C 1007.1 hPa SSW 15 km/h 20 km/h 64% 0.00 mm 515.89 W/m2
12:59 35.0 °C 27.0 °C 1006.9 hPa SSW 12 km/h 16 km/h 64% 0.00 mm 513.61 W/m2
13:04 36.0 °C 27.0 °C 1006.8 hPa South 13 km/h 16 km/h 63% 0.00 mm 512.36 W/m2
13:09 36.0 °C 27.0 °C 1006.8 hPa SSW 13 km/h 20 km/h 62% 0.00 mm 515.59 W/m2
13:14 36.0 °C 27.0 °C 1006.6 hPa South 12 km/h 16 km/h 62% 0.00 mm 514.66 W/m2
13:19 35.0 °C 27.0 °C 1006.4 hPa South 13 km/h 20 km/h 63% 0.00 mm 513.42 W/m2
13:24 36.0 °C 27.0 °C 1006.3 hPa South 12 km/h 16 km/h 62% 0.00 mm 510.70 W/m2
13:29 36.0 °C 27.0 °C 1006.3 hPa WSW 13 km/h 16 km/h 61% 0.00 mm 516.96 W/m2
13:34 36.0 °C 27.0 °C 1006.2 hPa South 13 km/h 16 km/h 61% 0.00 mm 516.40 W/m2
13:39 36.0 °C 27.0 °C 1006.1 hPa South 21 km/h 24 km/h 60% 0.00 mm 518.73 W/m2
13:44 36.0 °C 27.0 °C 1006.0 hPa South 10 km/h 12 km/h 61% 0.00 mm 517.62 W/m2
13:49 36.0 °C 27.0 °C 1006.0 hPa SSW 8 km/h 12 km/h 60% 0.00 mm 516.89 W/m2
13:54 37.0 °C 27.0 °C 1006.0 hPa SW 8 km/h 16 km/h 60% 0.00 mm 508.33 W/m2
13:59 37.0 °C 27.0 °C 1005.9 hPa South 12 km/h 16 km/h 59% 0.00 mm 508.62 W/m2
14:04 37.0 °C 27.0 °C 1005.7 hPa SSW 13 km/h 16 km/h 60% 0.00 mm 508.52 W/m2
14:09 37.0 °C 27.0 °C 1005.7 hPa SSW 13 km/h 16 km/h 58% 0.00 mm 505.07 W/m2
14:14 37.0 °C 27.0 °C 1005.7 hPa South 12 km/h 12 km/h 58% 0.00 mm 504.73 W/m2
14:19 37.0 °C 27.0 °C 1005.6 hPa South 12 km/h 12 km/h 59% 0.00 mm 506.37 W/m2
14:24 36.0 °C 27.0 °C 1005.6 hPa South 13 km/h 16 km/h 60% 0.00 mm 500.72 W/m2
14:29 36.0 °C 28.0 °C 1005.5 hPa South 12 km/h 16 km/h 62% 0.00 mm 492.30 W/m2
14:34 36.0 °C 28.0 °C 1005.3 hPa SSW 15 km/h 20 km/h 64% 0.00 mm 486.48 W/m2
14:39 36.0 °C 28.0 °C 1005.3 hPa South 12 km/h 12 km/h 63% 0.00 mm 480.34 W/m2
14:44 36.0 °C 28.0 °C 1005.4 hPa South 14 km/h 16 km/h 64% 0.00 mm 473.22 W/m2
14:49 36.0 °C 28.0 °C 1005.2 hPa SSE 15 km/h 20 km/h 66% 0.00 mm 468.15 W/m2
14:54 36.0 °C 28.0 °C 1005.2 hPa South 17 km/h 20 km/h 68% 0.00 mm 460.54 W/m2
14:59 35.0 °C 28.0 °C 1005.3 hPa South 18 km/h 24 km/h 68% 0.00 mm 452.66 W/m2
15:04 35.0 °C 28.0 °C 1005.3 hPa South 12 km/h 16 km/h 68% 0.00 mm 450.83 W/m2
15:09 35.0 °C 29.0 °C 1005.3 hPa South 17 km/h 20 km/h 69% 0.00 mm 442.58 W/m2
15:14 35.0 °C 29.0 °C 1005.3 hPa South 13 km/h 16 km/h 68% 0.00 mm 442.14 W/m2
15:19 36.0 °C 29.0 °C 1005.2 hPa SSW 14 km/h 16 km/h 69% 0.00 mm 437.25 W/m2
15:24 35.0 °C 29.0 °C 1005.0 hPa SSE 13 km/h 16 km/h 70% 0.00 mm 427.49 W/m2
15:29 35.0 °C 29.0 °C 1005.0 hPa South 12 km/h 16 km/h 69% 0.00 mm 417.97 W/m2
15:34 35.0 °C 28.0 °C 1005.0 hPa SSW 13 km/h 16 km/h 66% 0.00 mm 414.23 W/m2
15:39 35.0 °C 28.0 °C 1004.9 hPa South 13 km/h 16 km/h 68% 0.00 mm 411.85 W/m2
15:44 36.0 °C 29.0 °C 1004.9 hPa South 12 km/h 16 km/h 69% 0.00 mm 411.12 W/m2
15:49 36.0 °C 29.0 °C 1004.9 hPa South 12 km/h 16 km/h 68% 0.00 mm 405.03 W/m2
15:54 35.0 °C 28.0 °C 1004.9 hPa South 14 km/h 16 km/h 67% 0.00 mm 400.11 W/m2
15:59 35.0 °C 28.0 °C 1004.8 hPa South 14 km/h 24 km/h 68% 0.00 mm 386.31 W/m2
16:04 35.0 °C 28.0 °C 1004.8 hPa South 13 km/h 20 km/h 69% 0.00 mm 377.40 W/m2
16:09 35.0 °C 28.0 °C 1004.8 hPa SSW 15 km/h 20 km/h 69% 0.00 mm 361.77 W/m2
16:14 34.0 °C 28.0 °C 1004.7 hPa South 14 km/h 16 km/h 69% 0.00 mm 327.10 W/m2
16:19 35.0 °C 28.0 °C 1004.8 hPa SSW 13 km/h 16 km/h 71% 0.00 mm 321.94 W/m2
16:24 35.0 °C 28.0 °C 1004.8 hPa South 14 km/h 16 km/h 69% 0.00 mm 314.86 W/m2
16:29 35.0 °C 29.0 °C 1004.8 hPa South 13 km/h 20 km/h 71% 0.00 mm 295.17 W/m2
16:34 35.0 °C 28.0 °C 1004.8 hPa South 10 km/h 12 km/h 71% 0.00 mm 285.48 W/m2
16:39 34.0 °C 28.0 °C 1004.9 hPa SSW 12 km/h 16 km/h 69% 0.00 mm 284.38 W/m2
16:44 34.0 °C 28.0 °C 1004.9 hPa South 16 km/h 20 km/h 71% 0.00 mm 258.15 W/m2
16:49 34.0 °C 28.0 °C 1004.9 hPa SSW 12 km/h 16 km/h 72% 0.00 mm 241.61 W/m2
16:54 34.0 °C 28.0 °C 1005.0 hPa South 12 km/h 12 km/h 70% 0.00 mm 231.68 W/m2
16:59 34.0 °C 28.0 °C 1005.1 hPa South 13 km/h 16 km/h 71% 0.00 mm 225.41 W/m2
17:04 34.0 °C 28.0 °C 1005.0 hPa South 11 km/h 16 km/h 71% 0.00 mm 203.66 W/m2
17:09 34.0 °C 28.0 °C 1005.1 hPa South 11 km/h 12 km/h 71% 0.00 mm 180.61 W/m2
17:14 34.0 °C 28.0 °C 1005.1 hPa SW 10 km/h 12 km/h 72% 0.00 mm 143.35 W/m2
17:19 34.0 °C 28.0 °C 1005.1 hPa South 12 km/h 12 km/h 74% 0.00 mm 100.19 W/m2
17:24 33.0 °C 28.0 °C 1005.2 hPa South 14 km/h 16 km/h 75% 0.00 mm 91.50 W/m2
17:29 33.0 °C 28.0 °C 1005.1 hPa SSW 14 km/h 16 km/h 74% 0.00 mm 82.38 W/m2
17:34 33.0 °C 28.0 °C 1005.3 hPa South 13 km/h 16 km/h 75% 0.00 mm 74.54 W/m2
17:39 33.0 °C 28.0 °C 1005.4 hPa SSW 15 km/h 20 km/h 76% 0.00 mm 69.69 W/m2
17:44 33.0 °C 28.0 °C 1005.6 hPa South 10 km/h 16 km/h 77% 0.00 mm 55.56 W/m2
17:49 33.0 °C 28.0 °C 1005.8 hPa South 11 km/h 16 km/h 78% 0.00 mm 41.69 W/m2
17:54 33.0 °C 28.0 °C 1005.9 hPa SSW 13 km/h 16 km/h 78% 0.00 mm 32.20 W/m2
17:59 32.0 °C 28.0 °C 1005.8 hPa SSW 10 km/h 12 km/h 78% 0.00 mm 23.67 W/m2
18:04 33.0 °C 28.0 °C 1005.9 hPa SSE 10 km/h 12 km/h 78% 0.00 mm 18.62 W/m2
18:09 32.0 °C 28.0 °C 1005.8 hPa South 9 km/h 12 km/h 79% 0.00 mm 9.49 W/m2
18:14 32.0 °C 28.0 °C 1005.8 hPa SSE 15 km/h 20 km/h 78% 0.00 mm 3.87 W/m2
18:19 32.0 °C 28.0 °C 1005.8 hPa South 12 km/h 16 km/h 78% 0.00 mm 0.58 W/m2
18:24 32.0 °C 28.0 °C 1005.9 hPa SSE 13 km/h 16 km/h 78% 0.00 mm 0.00 W/m2
18:29 32.0 °C 28.0 °C 1006.0 hPa SSE 12 km/h 12 km/h 78% 0.00 mm 0.00 W/m2
18:34 32.0 °C 28.0 °C 1006.0 hPa SSE 15 km/h 20 km/h 78% 0.00 mm 0.00 W/m2
18:39 32.0 °C 28.0 °C 1006.2 hPa SSE 13 km/h 16 km/h 79% 0.00 mm 0.00 W/m2
18:44 32.0 °C 28.0 °C 1006.2 hPa SSE 14 km/h 16 km/h 80% 0.00 mm 0.00 W/m2
18:49 32.0 °C 28.0 °C 1006.3 hPa SSE 16 km/h 24 km/h 81% 0.00 mm 0.00 W/m2
18:54 32.0 °C 28.0 °C 1006.1 hPa SSE 12 km/h 20 km/h 81% 0.00 mm 0.00 W/m2
18:59 32.0 °C 28.0 °C 1006.1 hPa SSE 12 km/h 16 km/h 82% 0.00 mm 0.00 W/m2
19:04 32.0 °C 28.0 °C 1006.1 hPa SSE 10 km/h 12 km/h 81% 0.00 mm 0.00 W/m2
19:09 32.0 °C 28.0 °C 1006.1 hPa SSE 15 km/h 20 km/h 81% 0.00 mm 0.00 W/m2
19:14 32.0 °C 28.0 °C 1006.3 hPa SSE 8 km/h 12 km/h 81% 0.00 mm 0.00 W/m2
19:19 32.0 °C 28.0 °C 1006.7 hPa SSE 12 km/h 16 km/h 82% 0.00 mm 0.00 W/m2
19:24 32.0 °C 28.0 °C 1006.5 hPa SSE 14 km/h 16 km/h 82% 0.00 mm 0.00 W/m2
19:29 32.0 °C 28.0 °C 1006.7 hPa SSE 17 km/h 20 km/h 83% 0.00 mm 0.00 W/m2
19:34 31.0 °C 28.0 °C 1006.7 hPa SE 16 km/h 20 km/h 84% 0.00 mm 0.00 W/m2
19:39 31.0 °C 28.0 °C 1006.6 hPa SE 20 km/h 24 km/h 83% 0.00 mm 0.00 W/m2
19:44 31.0 °C 28.0 °C 1007.0 hPa SSE 14 km/h 16 km/h 82% 0.00 mm 0.00 W/m2
19:49 31.0 °C 28.0 °C 1006.9 hPa SSE 15 km/h 16 km/h 82% 0.00 mm 0.00 W/m2
19:54 31.0 °C 28.0 °C 1006.9 hPa SSE 15 km/h 20 km/h 82% 0.00 mm 0.00 W/m2
19:59 31.0 °C 28.0 °C 1006.9 hPa SSE 13 km/h 16 km/h 82% 0.00 mm 0.00 W/m2
20:04 31.0 °C 28.0 °C 1007.1 hPa South 10 km/h 16 km/h 82% 0.00 mm 0.00 W/m2
20:09 31.0 °C 28.0 °C 1007.0 hPa SSE 11 km/h 12 km/h 82% 0.00 mm 0.00 W/m2
20:14 31.0 °C 28.0 °C 1007.2 hPa SSE 10 km/h 12 km/h 82% 0.00 mm 0.00 W/m2
20:19 32.0 °C 28.0 °C 1007.2 hPa South 6 km/h 8 km/h 81% 0.00 mm 0.00 W/m2
20:24 32.0 °C 28.0 °C 1007.1 hPa SSE 10 km/h 12 km/h 81% 0.00 mm 0.00 W/m2
20:29 31.0 °C 28.0 °C 1007.4 hPa SSE 12 km/h 16 km/h 81% 0.00 mm 0.00 W/m2
20:34 31.0 °C 28.0 °C 1007.6 hPa SSE 9 km/h 12 km/h 82% 0.00 mm 0.00 W/m2
20:39 31.0 °C 28.0 °C 1007.6 hPa SSE 10 km/h 12 km/h 81% 0.00 mm 0.00 W/m2
20:44 31.0 °C 28.0 °C 1007.5 hPa South 5 km/h 8 km/h 81% 0.00 mm 0.00 W/m2
20:49 31.0 °C 28.0 °C 1007.6 hPa South 8 km/h 12 km/h 81% 0.00 mm 0.00 W/m2
20:54 31.0 °C 28.0 °C 1007.4 hPa SSE 10 km/h 16 km/h 82% 0.00 mm 0.00 W/m2
20:59 31.0 °C 28.0 °C 1007.5 hPa SSE 6 km/h 8 km/h 82% 0.00 mm 0.00 W/m2
21:04 31.0 °C 28.0 °C 1007.8 hPa SSW 4 km/h 4 km/h 81% 0.00 mm 0.00 W/m2
21:09 31.0 °C 28.0 °C 1007.9 hPa SSE 5 km/h 8 km/h 81% 0.00 mm 0.00 W/m2
21:14 31.0 °C 28.0 °C 1007.7 hPa South 9 km/h 12 km/h 81% 0.00 mm 0.00 W/m2
21:19 31.0 °C 28.0 °C 1008.0 hPa South 1 km/h 4 km/h 81% 0.00 mm 0.00 W/m2
21:24 31.0 °C 28.0 °C 1008.0 hPa South 5 km/h 8 km/h 81% 0.00 mm 0.00 W/m2
21:29 31.0 °C 28.0 °C 1007.9 hPa Calm   4 km/h 81% 0.00 mm 0.00 W/m2
21:34 31.0 °C 28.0 °C 1008.2 hPa WNW 3 km/h 4 km/h 81% 0.00 mm 0.00 W/m2
21:39 31.0 °C 28.0 °C 1008.1 hPa West 3 km/h 4 km/h 81% 0.00 mm 0.00 W/m2
21:44 31.0 °C 28.0 °C 1008.1 hPa NW 5 km/h 8 km/h 82% 0.00 mm 0.00 W/m2
21:49 31.0 °C 28.0 °C 1008.3 hPa NNW 8 km/h 12 km/h 82% 0.00 mm 0.00 W/m2
21:54 31.0 °C 28.0 °C 1008.2 hPa NW 10 km/h 12 km/h 82% 0.00 mm 0.00 W/m2
21:59 31.0 °C 28.0 °C 1008.4 hPa NW 15 km/h 16 km/h 83% 0.00 mm 0.00 W/m2
22:04 31.0 °C 27.0 °C 1008.3 hPa NW 15 km/h 20 km/h 84% 0.00 mm 0.00 W/m2
22:09 30.0 °C 27.0 °C 1008.2 hPa NW 14 km/h 16 km/h 84% 0.00 mm 0.00 W/m2
22:14 30.0 °C 27.0 °C 1008.4 hPa NW 13 km/h 20 km/h 85% 0.00 mm 0.00 W/m2
22:19 30.0 °C 27.0 °C 1008.3 hPa NNW 11 km/h 12 km/h 85% 0.00 mm 0.00 W/m2
22:24 30.0 °C 27.0 °C 1008.2 hPa NW 12 km/h 16 km/h 86% 0.00 mm 0.00 W/m2
22:29 30.0 °C 27.0 °C 1008.2 hPa NW 9 km/h 12 km/h 86% 0.00 mm 0.00 W/m2
22:34 30.0 °C 27.0 °C 1008.2 hPa North 12 km/h 16 km/h 86% 0.00 mm 0.00 W/m2
22:39 30.0 °C 27.0 °C 1008.3 hPa North 8 km/h 12 km/h 86% 0.00 mm 0.00 W/m2
22:44 30.0 °C 27.0 °C 1008.1 hPa NNW 8 km/h 12 km/h 86% 0.00 mm 0.00 W/m2
22:49 30.0 °C 27.0 °C 1008.1 hPa NNW 8 km/h 8 km/h 86% 0.00 mm 0.00 W/m2
22:54 30.0 °C 27.0 °C 1008.0 hPa NNE 7 km/h 12 km/h 86% 0.00 mm 0.00 W/m2
22:59 30.0 °C 27.0 °C 1008.0 hPa NNE 9 km/h 12 km/h 86% 0.00 mm 0.00 W/m2
23:04 30.0 °C 27.0 °C 1008.0 hPa North 11 km/h 12 km/h 85% 0.00 mm 0.00 W/m2
23:09 30.0 °C 27.0 °C 1008.1 hPa NNE 9 km/h 12 km/h 85% 0.00 mm 0.00 W/m2
23:14 30.0 °C 27.0 °C 1008.0 hPa NNW 8 km/h 8 km/h 85% 0.00 mm 0.00 W/m2
23:19 30.0 °C 27.0 °C 1008.0 hPa NNW 6 km/h 8 km/h 84% 0.00 mm 0.00 W/m2
23:24 30.0 °C 27.0 °C 1008.0 hPa NNE 8 km/h 8 km/h 83% 0.00 mm 0.00 W/m2
23:29 30.0 °C 27.0 °C 1008.0 hPa North 7 km/h 8 km/h 83% 0.00 mm 0.00 W/m2
23:34 30.0 °C 27.0 °C 1007.8 hPa North 7 km/h 8 km/h 83% 0.00 mm 0.00 W/m2
23:39 30.0 °C 27.0 °C 1007.7 hPa North 8 km/h 12 km/h 82% 0.00 mm 0.00 W/m2
23:44 30.0 °C 27.0 °C 1007.6 hPa NNE 8 km/h 8 km/h 82% 0.00 mm 0.00 W/m2
23:49 30.0 °C 27.0 °C 1007.6 hPa NNE 8 km/h 8 km/h 82% 0.00 mm 0.00 W/m2
23:54 30.0 °C 27.0 °C 1007.6 hPa North 6 km/h 8 km/h 82% 0.00 mm 0.00 W/m2
23:59 30.0 °C 27.0 °C 1007.6 hPa NNE 7 km/h 8 km/h 82% 0.00 mm 0.00 W/m2
PIMOHWEATHER Philippines
Compliments of Weather Underground - 2 mb